This is the latest recevied weather packets stored in our database for station/object KB1QVF. If no packets are shown the sender has not sent any weather packets the latest 10 day(s).
| Time | Temp. | Humidity | Pressure | Rain* | Wind** | Luminosity | Snow |
|---|---|---|---|---|---|---|---|
| 1778153547 | 8.33° C | 97% | 1010.4 hPa | 0 mm | - | 45 W/m² | - |
| 1778153244 | 8.33° C | 97% | 1010.4 hPa | 0 mm | - | 39 W/m² | - |
| 1778152941 | 8.33° C | 97% | 1010.3 hPa | 0 mm | - | 37 W/m² | - |
| 1778152639 | 8.33° C | 97% | 1010.1 hPa | 0 mm | - | 27 W/m² | - |
| 1778152336 | 8.33° C | 97% | 1009.9 hPa | 0 mm | - | 34 W/m² | - |
| 1778152031 | 8.33° C | 97% | 1010.5 hPa | 0 mm | - | 18 W/m² | - |
| 1778151728 | 8.33° C | 97% | 1010.3 hPa | 0 mm | - | 23 W/m² | - |
| 1778151425 | 8.33° C | 97% | 1010.4 hPa | 0 mm | - | 25 W/m² | - |
| 1778151121 | 8.33° C | 97% | 1010 hPa | 0 mm | - | 22 W/m² | - |
| 1778150818 | 8.33° C | 97% | 1010 hPa | 0 mm | - | 12 W/m² | - |
| 1778150514 | 8.33° C | 97% | 1010.1 hPa | 0 mm | - | 5 W/m² | - |
| 1778150210 | 8.89° C | 97% | 1010.1 hPa | 1.27 mm | - | 6 W/m² | - |
| 1778149908 | 8.89° C | 97% | 1010.1 hPa | 1.27 mm | - | 6 W/m² | - |
| 1778149604 | 8.89° C | 97% | 1009.6 hPa | 0 mm | - | 8 W/m² | - |
| 1778149300 | 8.89° C | 97% | 1009.7 hPa | 0 mm | - | 13 W/m² | - |
| 1778148996 | 8.89° C | 97% | 1009.7 hPa | 1.78 mm | - | 5 W/m² | - |
| 1778148692 | 8.89° C | 97% | 1009.8 hPa | 4.83 mm | - | 10 W/m² | - |
| 1778148390 | 8.89° C | 97% | 1009.9 hPa | 4.32 mm | - | 3 W/m² | - |
| 1778148088 | 8.89° C | 97% | 1010 hPa | 3.05 mm | - | 1 W/m² | - |
| 1778147786 | 8.89° C | 97% | 1009.9 hPa | 0 mm | - | 1 W/m² | - |
| 1778147482 | 8.89° C | 97% | 1010 hPa | 1.27 mm | - | 3 W/m² | - |
| 1778147178 | 8.89° C | 97% | 1009.8 hPa | 1.27 mm | - | 2 W/m² | - |
| 1778146875 | 8.89° C | 97% | 1009.7 hPa | 0 mm | - | 1 W/m² | - |
| 1778146572 | 8.89° C | 97% | 1009.9 hPa | 1.78 mm | - | 1 W/m² | - |
| 1778146271 | 8.89° C | 96% | 1009.7 hPa | 0 mm | - | 0 W/m² | - |
* Rain latest hour (hover to see other rain measurements)
** Current wind speed in m/s (hover to see current wind gust speed)